Location: Altmatt
(47.1333°N, 8.7000°E)
Time: 02:27:54
(UTC+00:00)

Cosmos 44 Rocket - Pass Details

Date: 13 July 2020
Orbit: 651 x 739 km, 65.1° (Epoch: 04 August)

Event Time Altitude Azimuth Distance (km) Brightness Sun altitude
Exits shadow 21:38:26 27° 124° (SE) 1,268 4.2 -16.7°
Maximum altitude 21:38:52 27° 114° (ESE) 1,256 4.2 -16.7°
Drops below altitude 10° 21:42:51 10° 57° (ENE) 2,095 5.8 -17.0°
Sets 21:45:27 0° 46° (NE) 3,026 6.8 -17.2°
